User: anonymous   Login
Location: Unspecified
(0.0000°N, 0.0000°E)
Time: 07:13:07
(UTC+00:00)
Language:

USA 257 - Orbit

View from above orbital plane
View from above orbital plane
View from above satellite
View from above satellite

Ground track
Ground track

The orbit data is extracted from the following two-line orbital elements,

1 40208U 14055A   18297.99460705 0.00000000  00000-0  00000-0 0    09
2 40208   0.0454 129.1327 0012437 227.8519 132.1481  1.00270000    05
Epoch (UTC): 24 October 2018 23:52:14
Eccentricity: 0.0012437
inclination: 0.0454°
perigee height: 35734 km
apogee height: 35839 km
right ascension of ascending node: 129.1327°
argument of perigee: 227.8519°
revolutions per day: 1.00270000
mean anomaly at epoch: 132.1481°
orbit number at epoch: 0

The dashed part of the orbit path shows where the satellite is in the earth's shadow,  

DLR